Temperature
18 18 18 18 17 17 17 17 17 17 17 17 17 17 17 17 18 17 17 17 17 17 17 17 17 17 17 17 17 17 17 17 17 17 17 17 17 16 16 16 16 16 16
18 18 18 17 17 17 17 17 17 17 17 17 17 17 17 17 17 17 17 17 17 17 17 17 17 17 17 17 17 17 17 17 17 17 17 17 17 16 16 16 16 16 16
18 18 18 17 17 17 17 17 17 17 17 17 17 17 17 17 17 17 17 17 17 17 17 17 17 17 17 17 17 17 17 17 17 17 17 17 17 16 16 16 16 16 16
18 17 17 17 17 17 17 17 17 17 17 17 17 17 17 17 17 17 17 17 17 17 17 16 16 16 16 16 16 16 17 16 16 16 16 16 16 16 16 16 16 16 16
18 17 17 17 17 17 17 16 16 17 16 16 17 17 17 17 17 17 17 17 17 17 17 16 16 16 16 16 16 16 16 16 16 16 16 16 16 16 16 16 16 16 16
17 17 17 17 17 17 16 16 16 16 16 16 17 17 17 17 17 17 17 16 16 16 16 16 16 16 16 16 16 16 16 16 16 16 16 16 16 16 16 16 16 16 16
17 17 17 17 16 16 16 16 16 16 16 16 16 17 17 17 17 17 17 17 17 16 16 16 16 16 16 16 16 16 16 16 16 16 16 16 16 16 16 16 16 16 16
17 17 16 16 16 16 16 16 16 16 16 16 16 17 17 17 17 16 16 16 16 16 16 16 16 16 16 16 16 15 15 15 15 15 15 15 15 15 15 15 15 15 16
17 17 16 16 16 16 16 16 16 16 16 16 16 16 16 16 16 16 16 16 16 16 16 16 16 16 16 16 15 15 15 15 15 15 15 15 15 15 15 15 15 15 15
17 16 16 16 16 16 16 16 15 15 16 16 16 16 16 16 16 16 16 16 16 16 16 16 16 16 16 15 15 15 15 15 15 15 15 15 15 15 15 15 15 15 15
16 16 16 16 16 16 15 15 15 15 15 15 15 15 16 16 16 16 16 16 16 16 16 16 16 16 15 15 15 15 15 15 15 15 15 15 15 15 15 15 15 15 15
16 16 16 16 16 15 15 15 15 15 15 15 15 15 15 15 15 15 15 15 15 15 15 15 15 15 15 15 15 15 15 15 15 15 14 14 14 14 15 15 15 15 15
16 16 16 16 16 15 15 15 15 15 15 15 15 15 15 15 15 15 15 15 15 15 15 15 15 15 15 15 15 15 14 14 14 14 14 14 14 14 14 14 14 14 14
17 16 16 16 16 15 15 15 15 15 15 15 15 15 15 15 14 14 14 14 14 15 15 15 15 15 15 15 14 14 14 14 14 14 14 14 14 14 14 14 14 14 14
17 16 16 16 16 15 15 15 15 15 15 15 15 14 14 14 14 14 14 14 14 14 14 14 14 14 14 14 14 14 14 14 14 14 14 13 13 13 14 14 14 14 14
17 16 16 16 16 15 15 15 15 15 15 15 15 15 15 14 14 14 14 14 14 14 14 14 14 14 14 14 14 14 14 14 13 13 13 13 13 13 13 13 13 14 14
17 16 16 16 16 16 15 15 15 15 15 15 15 15 15 14 14 14 14 14 14 13 13 14 14 14 14 14 14 13 13 13 13 13 13 13 13 13 13 13 13 13 13
17 17 16 16 16 16 16 16 15 15 15 15 15 15 15 14 14 14 14 14 14 13 13 13 14 14 14 13 13 13 13 13 13 13 13 13 13 13 13 13 13 13 13
17 16 16 16 16 16 16 16 16 15 15 15 15 15 15 14 14 14 14 14 14 13 13 13 13 13 13 13 13 13 13 13 13 13 13 13 13 13 13 13 13 13 13
17 16 16 16 16 16 16 16 16 15 15 15 15 15 15 14 14 14 14 14 14 13 13 13 13 13 13 13 13 13 13 13 13 13 13 13 13 13 13 13 13 13 13
17 16 16 16 16 16 16 16 16 16 15 15 15 15 15 15 14 14 14 14 14 13 13 13 13 13 13 13 13 13 13 13 13 13 13 13 13 13 13 13 13 13 13
16 16 16 16 16 16 16 15 15 15 15 15 15 15 15 14 14 14 14 14 13 13 13 13 13 13 13 13 13 13 12 12 12 13 12 13 13 13 13 13 13 13 13
16 16 16 16 16 16 15 15 15 15 15 15 15 15 15 14 14 14 14 13 13 13 13 13 13 13 13 13 12 12 12 12 12 12 12 12 12 12 13 13 13 12 12
16 16 16 16 16 16 15 15 15 15 14 14 14 14 14 14 14 14 13 13 13 13 13 13 13 13 13 12 12 12 12 12 12 12 12 12 12 12 13 13 12 12 12
16 16 16 16 15 15 15 15 14 14 14 14 14 14 14 14 14 13 13 13 13 13 13 13 13 13 12 12 12 12 12 11 11 12 12 11 12 12 12 12 12 12 12
15 15 15 15 15 15 15 14 14 14 14 14 14 14 13 13 13 13 13 13 13 13 13 12 12 12 12 12 12 12 12 11 11 11 12 11 12 11 11 12 12 12 12
Wind_Speed
5 6 5 6 6 6 6 4 3 2 1 1 2 3 3 5 8 9 10 14 16 16 16 16 16 15 15 15 15 15 15 14 14 14 14 14 14 14 13 13 13 13 13
7 5 4 4 5 6 6 5 3 2 1 1 1 2 3 4 7 9 11 13 15 16 16 16 16 16 16 16 16 16 16 16 16 16 15 15 15 15 14 14 14 13 13
10 7 4 3 4 6 6 4 3 2 1 1 0 1 2 3 5 8 10 11 13 15 16 16 16 16 16 15 16 16 16 17 17 17 17 17 17 16 16 16 15 15 15
11 8 4 3 5 6 5 3 3 2 2 1 0 1 1 2 4 6 8 9 10 10 13 15 15 16 16 16 15 16 16 16 17 18 18 19 18 18 17 17 17 16 16
12 9 5 4 7 5 3 3 3 2 1 0 1 2 2 2 2 4 4 7 9 10 11 12 14 15 15 14 15 15 16 16 17 18 19 19 19 19 19 18 18 18 18
11 9 6 5 6 4 3 3 3 2 1 0 1 1 2 2 1 2 3 4 6 8 9 9 10 12 14 14 14 15 15 16 17 18 19 19 20 20 20 20 19 19 19
10 8 5 5 4 4 4 3 2 2 2 1 2 3 4 2 1 1 1 1 2 4 7 8 8 8 8 12 13 14 14 14 16 17 18 19 20 21 21 22 21 21 20
10 8 6 5 4 4 4 3 3 2 2 2 2 3 3 5 4 2 1 0 1 1 2 5 7 7 7 6 8 11 11 12 13 14 16 18 19 21 22 22 22 22 22
9 9 8 6 4 4 4 3 3 4 2 2 2 3 3 1 2 4 3 2 1 0 0 1 4 6 7 6 6 6 7 9 10 12 13 15 16 18 20 21 22 22 22
9 10 9 7 5 4 4 3 3 3 3 2 2 2 2 3 3 1 4 3 3 1 1 1 1 3 5 5 5 5 5 6 8 9 10 12 13 14 17 19 20 21 22
7 9 9 7 5 4 4 4 4 3 3 3 1 1 3 3 3 3 1 4 4 3 2 1 1 2 4 5 4 4 4 5 6 7 8 9 10 11 13 15 17 20 21
4 6 8 7 6 5 5 4 4 4 3 3 2 2 2 2 1 2 2 1 3 4 3 2 1 2 4 5 5 5 4 4 5 5 6 7 8 9 11 12 14 16 18
4 5 5 6 5 5 5 4 4 3 3 3 3 2 2 2 2 3 3 1 1 3 3 3 2 2 3 5 5 5 5 6 7 7 8 8 9 9 10 11 12 12 14
6 7 7 6 6 7 6 4 3 3 3 3 3 2 2 1 2 3 3 3 1 3 3 3 2 2 2 4 6 6 7 8 10 10 11 11 11 12 12 12 12 12 13
6 8 7 7 6 6 6 5 3 3 4 3 3 3 2 1 1 1 2 3 4 1 2 3 3 3 3 5 7 7 8 10 11 13 13 14 15 15 15 14 14 14 14
7 9 8 8 7 6 6 5 4 4 4 3 3 3 2 2 1 1 2 2 3 4 3 3 3 4 4 5 7 8 10 11 12 14 15 16 17 17 18 18 17 16 16
9 9 9 9 8 7 7 6 5 5 5 4 3 4 4 3 2 2 1 1 2 3 3 4 3 3 3 4 6 9 11 11 13 15 16 17 18 19 20 20 19 19 18
9 10 9 9 9 8 7 8 7 6 6 6 6 5 5 4 4 3 3 3 3 3 4 5 4 3 4 5 5 5 8 10 11 14 15 16 17 18 19 20 21 21 20
9 9 9 10 9 9 9 8 8 7 7 7 7 7 7 6 6 5 5 4 4 4 4 4 5 3 4 4 4 4 4 5 8 11 12 13 14 15 16 18 19 21 21
9 10 10 10 9 9 9 9 9 8 8 7 7 8 8 8 8 7 6 6 5 5 4 4 5 5 5 4 2 4 4 4 4 7 9 10 10 12 13 15 17 18 20
10 9 9 8 8 7 8 9 9 9 8 8 7 7 8 10 11 9 7 7 7 6 5 5 6 4 5 4 4 4 4 5 5 4 4 5 6 6 11 14 16 18 19
8 8 9 9 9 8 10 12 9 8 7 8 8 7 8 9 11 13 13 12 10 8 8 6 6 7 8 7 5 5 4 4 5 4 3 5 3 6 7 12 16 19 20
9 9 9 9 9 9 11 12 12 7 7 7 8 7 6 7 8 7 9 11 12 14 14 9 9 10 9 8 6 6 6 7 7 5 3 6 5 7 8 14 19 21 22
7 7 8 8 8 9 12 12 11 7 6 6 6 6 7 7 6 6 7 7 8 9 11 10 10 12 11 10 9 9 8 7 7 6 5 6 6 7 9 11 19 21 22
7 7 7 7 7 8 10 12 10 5 5 6 6 6 7 7 9 9 6 7 9 9 12 14 16 16 17 17 12 5 6 6 8 7 5 5 6 7 7 8 13 19 19
6 6 6 6 7 7 8 10 10 5 5 5 5 5 8 8 9 7 6 7 9 10 8 9 10 13 13 14 16 11 10 9 8 7 6 6 6 5 5 6 7 9 11
Wind_Direction
157 161 167 171 177 175 169 166 164 159 141 128 131 140 141 152 172 181 197 199 196 193 193 192 193 194 193 193 192 191 190 189 188 185 183 181 179 177 175 174 172 171 170
154 150 149 156 162 166 165 160 157 148 146 142 140 156 163 162 168 186 199 204 203 200 200 199 200 201 201 201 201 199 199 197 195 194 193 191 189 187 185 182 181 180 180
148 144 138 140 151 150 135 116 105 101 102 120 209 210 186 185 179 192 196 203 208 209 207 207 208 208 208 208 208 207 206 205 202 201 201 199 197 196 194 191 188 188 188
144 137 131 135 137 128 120 112 95 83 67 74 257 260 224 209 207 206 199 202 205 210 215 217 217 215 214 214 214 213 212 211 210 208 208 206 205 204 203 200 196 195 195
142 138 132 130 123 112 112 119 97 108 91 353 277 265 257 237 239 223 208 207 207 211 215 221 222 221 221 221 220 220 219 217 216 215 215 213 211 209 209 208 205 202 202
140 135 130 128 121 110 104 100 99 84 99 272 319 341 310 275 231 213 207 208 206 209 212 215 223 228 227 227 225 226 226 224 222 221 221 219 217 215 213 212 211 209 208
141 136 133 130 125 124 129 119 101 71 29 28 46 6 352 357 28 228 207 181 199 204 200 205 212 221 231 232 231 232 233 230 228 227 226 225 225 222 219 217 216 215 214
147 143 137 140 137 125 112 98 92 89 23 48 103 76 20 3 355 357 359 162 199 166 183 198 201 212 225 231 237 239 238 237 236 233 231 230 230 230 226 224 222 221 220
147 143 147 143 140 135 136 126 115 116 86 20 74 129 125 195 317 338 354 3 347 52 350 204 198 212 215 215 230 240 241 241 243 241 236 234 236 235 233 230 228 227 226
152 151 151 144 140 136 141 142 125 122 114 69 20 42 131 154 135 352 336 341 340 353 319 274 192 193 194 195 206 220 232 242 246 248 245 240 240 239 238 237 235 232 230
158 155 151 144 142 142 145 136 124 117 119 123 107 70 61 60 84 123 324 329 339 329 313 275 219 187 181 179 186 208 222 235 243 250 256 253 249 248 244 241 240 238 235
157 155 151 148 148 147 150 151 146 135 132 125 120 115 122 112 116 123 151 293 310 307 323 326 265 198 188 185 196 201 212 227 240 247 257 266 265 262 257 251 250 248 245
170 173 156 156 155 157 158 150 145 147 147 142 147 142 140 153 161 146 137 179 322 313 331 332 300 228 204 199 208 210 221 234 241 246 253 262 268 272 271 267 262 262 259
179 173 166 166 165 160 159 150 149 163 155 155 159 152 146 161 157 156 155 142 47 341 339 312 317 298 257 223 229 228 236 242 246 250 254 259 263 267 270 270 268 269 266
179 171 168 169 169 164 159 152 162 174 161 167 168 164 165 189 151 153 150 151 147 168 295 294 307 300 284 253 251 242 244 250 252 255 259 262 264 266 267 268 268 268 268
174 169 171 171 170 168 165 159 166 176 169 181 183 177 191 203 176 153 148 151 154 165 224 264 263 275 283 282 268 254 255 262 263 263 264 265 265 265 265 265 265 266 266
174 173 174 173 174 177 175 172 181 182 186 197 197 191 211 202 195 206 182 167 172 165 216 272 267 276 282 282 285 273 268 265 268 269 269 269 269 268 266 264 263 263 263
178 177 175 176 182 185 183 182 191 189 191 201 209 204 220 215 212 217 210 219 218 199 199 254 279 282 273 272 270 274 272 268 264 270 272 274 274 274 270 266 263 261 261
178 180 178 183 188 188 190 194 194 197 201 207 208 207 216 207 219 222 219 224 231 224 202 221 258 265 273 278 288 287 279 278 278 278 279 280 282 281 278 274 268 264 262
181 186 189 192 193 193 195 199 199 203 209 214 215 215 217 210 215 218 222 224 226 231 229 231 251 263 267 276 271 276 290 283 281 285 285 285 287 291 288 284 277 271 266
193 194 194 199 198 197 203 202 203 207 211 219 225 224 224 221 219 217 220 220 218 225 231 237 250 260 264 266 259 252 260 276 279 262 274 279 283 287 289 287 283 276 269
194 192 194 197 201 209 209 207 207 213 213 219 229 235 239 237 235 232 233 227 215 218 225 230 240 243 254 248 247 244 247 264 280 261 235 269 262 272 272 274 274 274 272
195 196 198 197 204 211 208 208 212 209 217 223 226 232 245 246 240 241 247 247 239 234 227 226 236 244 248 242 236 245 239 236 246 244 227 268 263 267 269 273 271 270 270
196 199 202 201 202 212 208 209 211 209 218 226 225 225 233 249 250 241 247 254 253 252 244 238 239 247 246 243 232 236 243 251 256 252 212 251 264 261 269 268 271 270 270
201 203 199 196 202 217 213 212 205 206 223 237 241 239 235 244 253 250 245 255 266 269 263 249 244 248 251 251 244 242 245 245 263 261 213 221 255 262 265 264 267 267 266
208 203 198 195 201 215 216 212 202 201 224 245 255 253 249 254 264 263 242 246 261 268 273 279 268 264 260 258 250 234 235 242 251 261 230 212 243 243 271 263 257 260 262
Height
1555 1556 1557 1559 1560 1561 1562 1563 1564 1566 1567 1567 1568 1569 1569 1570 1571 1571 1571 1573 1573 1574 1574 1575 1576 1577 1578 1579 1579 1580 1581 1582 1583 1584 1584 1585 1586 1587 1588 1589 1590 1592 1593
1554 1555 1557 1558 1559 1560 1561 1563 1564 1564 1565 1566 1567 1567 1568 1569 1569 1570 1570 1571 1572 1573 1574 1574 1575 1576 1577 1577 1578 1579 1580 1581 1582 1583 1584 1585 1586 1587 1588 1589 1590 1591 1592
1553 1555 1556 1557 1558 1559 1560 1562 1562 1563 1564 1565 1565 1566 1567 1568 1568 1569 1569 1570 1571 1572 1572 1573 1574 1574 1575 1576 1577 1578 1579 1580 1581 1582 1583 1584 1585 1586 1587 1588 1589 1590 1591
1553 1554 1555 1556 1557 1558 1560 1561 1561 1562 1563 1563 1564 1565 1566 1566 1567 1568 1568 1569 1570 1570 1571 1572 1572 1573 1573 1574 1575 1576 1577 1578 1579 1580 1581 1582 1583 1584 1585 1586 1587 1589 1590
1552 1553 1554 1555 1557 1558 1559 1560 1560 1561 1562 1562 1563 1564 1564 1565 1565 1566 1567 1568 1569 1569 1570 1570 1571 1571 1572 1572 1573 1574 1575 1576 1577 1578 1579 1580 1581 1582 1583 1584 1586 1587 1588
1550 1552 1553 1555 1556 1557 1558 1559 1559 1560 1560 1561 1562 1562 1563 1564 1564 1565 1566 1567 1567 1568 1568 1569 1569 1570 1570 1570 1571 1571 1572 1573 1574 1575 1576 1577 1578 1580 1581 1582 1583 1585 1586
1549 1551 1552 1554 1555 1556 1557 1557 1558 1559 1559 1560 1561 1561 1562 1563 1564 1565 1565 1566 1566 1567 1567 1567 1568 1568 1568 1569 1569 1569 1569 1570 1571 1572 1573 1574 1575 1577 1578 1579 1581 1582 1583
1548 1550 1552 1553 1554 1555 1556 1556 1557 1558 1558 1559 1560 1560 1561 1563 1563 1564 1564 1565 1565 1566 1566 1566 1566 1566 1567 1567 1567 1567 1567 1568 1568 1569 1569 1570 1571 1573 1574 1575 1577 1578 1580
1547 1549 1551 1552 1553 1554 1555 1556 1556 1557 1558 1559 1559 1560 1560 1561 1562 1563 1563 1564 1564 1564 1565 1565 1565 1565 1565 1565 1565 1565 1565 1565 1566 1566 1566 1567 1568 1568 1570 1571 1572 1574 1576
1546 1548 1550 1551 1552 1553 1554 1555 1556 1557 1557 1558 1559 1559 1560 1560 1561 1562 1563 1563 1563 1563 1563 1563 1563 1563 1563 1563 1563 1563 1563 1563 1563 1563 1563 1564 1564 1565 1565 1567 1568 1569 1571
1546 1547 1549 1550 1551 1552 1553 1554 1555 1556 1557 1557 1558 1559 1559 1560 1560 1561 1561 1562 1562 1562 1562 1562 1562 1562 1562 1562 1562 1562 1561 1561 1561 1561 1561 1561 1561 1561 1562 1562 1563 1564 1565
1544 1546 1548 1549 1550 1551 1552 1553 1554 1555 1556 1557 1557 1558 1558 1559 1559 1560 1560 1560 1560 1561 1561 1561 1561 1561 1561 1560 1560 1560 1559 1559 1558 1558 1558 1558 1558 1558 1558 1558 1559 1560 1561
1542 1544 1546 1547 1549 1550 1551 1552 1553 1553 1554 1556 1557 1557 1558 1558 1558 1559 1559 1559 1559 1559 1559 1559 1559 1559 1559 1559 1558 1558 1557 1557 1556 1555 1555 1554 1554 1554 1554 1554 1555 1555 1556
1541 1543 1544 1546 1547 1548 1549 1550 1551 1552 1553 1554 1555 1556 1557 1557 1557 1558 1558 1558 1558 1558 1558 1558 1557 1557 1557 1557 1556 1556 1555 1554 1553 1552 1551 1551 1551 1550 1550 1550 1550 1551 1551
1539 1541 1543 1544 1546 1547 1548 1549 1550 1551 1552 1553 1554 1555 1555 1556 1556 1556 1556 1557 1557 1556 1556 1556 1556 1555 1555 1554 1554 1553 1552 1551 1550 1549 1548 1547 1547 1546 1546 1546 1546 1546 1546
1537 1539 1540 1542 1544 1545 1546 1547 1548 1550 1550 1551 1552 1553 1553 1554 1554 1555 1555 1555 1555 1555 1554 1553 1553 1553 1552 1552 1551 1550 1549 1548 1547 1545 1544 1544 1543 1543 1542 1542 1542 1542 1542
1534 1536 1538 1540 1541 1543 1544 1545 1546 1548 1549 1549 1550 1551 1551 1552 1552 1552 1553 1553 1553 1552 1552 1551 1551 1550 1550 1549 1548 1547 1546 1545 1544 1542 1541 1540 1539 1539 1538 1538 1538 1537 1537
1531 1533 1535 1537 1539 1540 1542 1543 1544 1545 1546 1547 1548 1548 1549 1549 1550 1550 1550 1550 1550 1550 1549 1548 1548 1547 1546 1545 1544 1543 1542 1541 1540 1539 1538 1536 1535 1535 1534 1534 1533 1533 1532
1528 1530 1532 1534 1535 1537 1539 1540 1541 1542 1543 1544 1545 1546 1546 1547 1547 1547 1547 1547 1547 1547 1546 1545 1544 1543 1542 1542 1540 1539 1538 1537 1536 1535 1533 1532 1531 1530 1529 1529 1528 1528 1527
1525 1527 1528 1530 1532 1534 1535 1536 1538 1539 1540 1541 1542 1542 1543 1543 1543 1543 1544 1543 1543 1543 1542 1541 1540 1539 1538 1537 1536 1534 1533 1532 1531 1530 1529 1528 1526 1525 1524 1524 1523 1522 1522
1521 1523 1525 1526 1528 1530 1531 1533 1534 1535 1536 1537 1538 1538 1539 1539 1539 1540 1539 1539 1539 1538 1538 1536 1535 1534 1533 1532 1531 1530 1528 1526 1525 1524 1523 1522 1521 1519 1519 1518 1517 1516 1516
1517 1519 1520 1522 1523 1525 1527 1529 1531 1532 1532 1533 1534 1534 1535 1535 1535 1535 1535 1535 1534 1534 1532 1532 1530 1529 1527 1527 1526 1524 1523 1521 1518 1519 1517 1515 1515 1512 1512 1511 1510 1509 1509
1513 1514 1516 1517 1519 1520 1522 1524 1526 1527 1528 1529 1529 1530 1530 1530 1530 1530 1529 1529 1528 1528 1528 1527 1524 1523 1522 1521 1520 1518 1517 1515 1513 1512 1511 1507 1507 1505 1505 1503 1503 1502 1501
1509 1510 1511 1513 1514 1516 1518 1519 1520 1521 1522 1523 1524 1524 1524 1524 1524 1524 1523 1522 1522 1521 1521 1520 1518 1517 1516 1515 1514 1512 1510 1508 1505 1505 1505 1501 1499 1498 1497 1496 1495 1494 1494
1504 1505 1507 1508 1510 1511 1513 1513 1515 1515 1516 1517 1518 1518 1519 1518 1518 1518 1517 1515 1514 1514 1514 1512 1511 1509 1508 1508 1507 1504 1502 1500 1496 1496 1497 1494 1492 1491 1489 1488 1487 1487 1486
1499 1501 1502 1503 1505 1506 1507 1508 1509 1510 1510 1511 1512 1512 1512 1512 1512 1511 1510 1508 1507 1506 1505 1504 1502 1501 1500 1499 1498 1496 1494 1492 1489 1487 1487 1487 1484 1484 1480 1479 1479 1479 1478